"Pseudo-MPEC" for ZTF01rZ

Created 2018 Dec 4 1:18:14 UT using Find_Orb

Click here for an explanation of pseudo-MPECs

 
 Astrometry: 
     ZTF01rZ  C2018 12 03.29082904 30 46.70 +13 14 59.3          17.24RUNEOCPI41
     ZTF01rZ  C2018 12 03.29117604 30 49.36 +13 15 45.5          17.24RUNEOCPI41
     ZTF01rZ  C2018 12 03.32561804 35 20.12 +14 31 16.2          17.18RUNEOCPI41
     ZTF01rZ  C2018 12 03.32596504 35 22.94 +14 32 02.4          17.18RUNEOCPI41
     ZTF01rZ  C2018 12 03.33759104 36 58.71 +14 57 30.0          17.03RUNEOCPI41
     ZTF01rZ  C2018 12 03.33793804 37 01.60 +14 58 17.0          17.03RUNEOCPI41

Station data:
(I41) Palomar Mountain--ZTF  (N33.357340 W116.859780)  US/California. 1.2-m
   f/2.44 Oschin Schmidt + CCD.

Orbital elements:  ZTF01rZ
   Perigee 2018 Dec 2.662080 +/- 0.0181 TT = 15:53:23 (JD 2458455.162080)
Epoch 2018 Dec  3.0 TT = JDT 2458455.5                        AutoNEOCP
M 116.83667455 +/- 3.7              (J2000 equator)
n 345.75257287 +/- 7.8              Peri.  199.61550 +/- 0.36
a 43393.6877 +/- 651                Node    45.28152 +/- 0.049
e   0.8215315 +/- 0.00471           Incl.   35.53283 +/- 0.13
P1499.31m/1.041d           H 33.8   G  0.15   U 14.1  
q 7744.40498 +/- 320    Q 79042.9704 +/- 1007
From 6 observations 2018 Dec. 3 (67.8 min); mean residual 0".32
Residuals in arcseconds: 
181203 I41  .00   .24-    181203 I41  .02-  .28-    181203 I41  .09+  .70-    
181203 I41  .00   .24+    181203 I41  .02+  .30+    181203 I41  .09-  .67+    

Ephemerides (geocentric):
Date (UTC) HH   RA              Dec         delta   r     elong  mag " sig PA
---- -- -- --  -------------   -----------  ------ ------ -----  --- ---- ---
2018 12 04 01  03 27 57.315   +04 50 12.74   72441 .98612 155.4 18.3 5176  52
2018 12 04 02  03 37 16.365   +06 28 08.35   75168 .98614 158.1 18.3 4960  53
2018 12 04 03  03 46 04.625   +07 59 31.37   77151 .98615 160.7 18.3 4823  53
2018 12 04 04  03 54 34.683   +09 26 27.79   78424 .98616 163.1 18.2 4756  54
2018 12 04 05  04 02 56.908   +10 50 37.38   79007 .98617 165.5 18.2 4755  54
2018 12 04 06  04 11 20.702   +12 13 25.20   78909 .98616 167.8 18.1 4824  55
2018 12 04 07  04 19 55.475   +13 36 09.84   78129 .98616 170.0 18.0 4973  56
2018 12 04 08  04 28 51.601   +15 00 10.30   76655 .98614 172.2 17.8 5221  57
2018 12 04 09  04 38 21.602   +16 26 52.91   74462 .98612 174.2 17.7 5600  58
2018 12 04 10  04 48 41.894   +17 57 59.99   71513 .98610 175.4 Sha  6165  59
2018 12 04 11  05 00 15.734   +19 35 42.21   67750 .98607 175.0 Sha  7011  60
2018 12 04 12  05 13 38.775   +21 22 58.56   63094 .98603 172.6 17.4 8319  61
2018 12 04 13  05 29 50.739   +23 24 11.15   57425 .98598 169.0 17.4 174'  63
2018 12 04 14  05 50 43.459   +25 46 08.72   50566 .98592 164.0 17.3 239'  65
2018 12 04 15  06 20 21.806   +28 39 54.66   42234 .98585 157.1 17.1 378'  69
2018 12 04 16  07 10 13.018   +32 20 26.96   31938 .98576 145.9 16.8 800'  75
2018 12 04 17  09 11 12.713   +35 31 32.03   18766 .98565 120.9 16.4  73d  92
2018 12 04 18  18 21 21.227   -28 45 53.34    8464 .98552  23.0 22??  75d 112
2018 12 04 19  00 35 56.916   -22 50 24.44   23046 .98561 104.8 17.3 990'  62
2018 12 04 20  01 43 33.177   -13 13 56.13   35241 .98569 123.4 17.7 526'  56
2018 12 04 21  02 16 12.243   -07 47 49.51   44884 .98576 133.0 17.9 364'  54
2018 12 04 22  02 37 34.997   -04 03 38.82   52741 .98582 139.4 18.1 285'  54
2018 12 04 23  02 53 40.200   -01 11 58.22   59223 .98587 144.3 18.2 239'  53
2018 12 05 00  03 06 47.464   +01 08 39.99   64577 .98591 148.2 18.3 210'  53
2018 12 05 01  03 18 04.879   +03 09 21.22   68958 .98594 151.6 18.3 191'  53
2018 12 05 02  03 28 10.858   +04 56 33.17   72472 .98597 154.6 18.3 177'  54
2018 12 05 03  03 37 29.562   +06 34 23.20   75191 .98599 157.4 18.3 168'  54
2018 12 05 04  03 46 17.659   +08 05 41.60   77168 .98600 160.0 18.3 9773  54
2018 12 05 05  03 54 47.702   +09 32 34.07   78434 .98601 162.4 18.3 9607  55
2018 12 05 06  04 03 10.045   +10 56 40.19   79011 .98601 164.8 18.2 9596  55
2018 12 05 07  04 11 34.085   +12 19 24.88   78907 .98601 167.1 18.1 9742  56
2018 12 05 08  04 20 09.239   +13 42 06.66   78121 .98601 169.4 18.0 168'  56
2018 12 05 09  04 29 05.901   +15 06 04.42   76640 .98599 171.7 17.9 177'  57
2018 12 05 10  04 38 36.628   +16 32 44.46   74441 .98598 173.9 17.7 190'  58
2018 12 05 11  04 48 57.898   +18 03 49.04   71484 .98595 175.7 Sha  210'  59
2018 12 05 12  05 00 33.072   +19 41 28.77   67715 .98592 175.8 Sha  241'  60
2018 12 05 13  05 13 57.991   +21 28 42.57   63050 .98588 173.6 17.4 288'  61
2018 12 05 14  05 30 12.742   +23 29 52.35   57371 .98583 169.9 17.3 366'  63
2018 12 05 15  05 51 09.968   +25 51 46.29   50501 .98578 165.0 17.2 514'  65
2018 12 05 16  06 20 56.691   +28 45 25.15   42154 .98571 158.0 17.1 860'  68
2018 12 05 17  07 11 07.937   +32 25 29.09   31838 .98562 146.7 16.8  38d  75
2018 12 05 18  09 13 28.102   +35 31 06.00   18637 .98550 121.4 16.3 172d  93
2018 12 05 19  18 29 32.445   -29 30 08.57    8546 .98538  23.9 22??  89d 111
2018 12 05 20  00 37 08.847   -22 39 12.56   23166 .98546 104.2 17.3  23d  62
2018 12 05 21  01 44 05.584   -13 05 26.19   35334 .98554 122.6 17.7 768'  56
2018 12 05 22  02 16 34.359   -07 40 20.47   44959 .98561 132.2 17.9 540'  55
2018 12 05 23  02 37 52.782   -03 56 39.23   52803 .98567 138.6 18.1 425'  54
2018 12 06 00  02 53 55.752   -01 05 15.66   59274 .98572 143.5 18.2 357'  54